Wetterdaten: Woche 30.12.13 - 05.01.14 (KW1)
Datum Zeit Temp. I. Temp. A. Feuchte I. Feuchte A. Luftdruck Regen Wind Richtung ET UV Solar Taupunkt Windchill Windben
30.12.2013 17:00 24,2 C 1,0 C 59 % 85 % 1027,1 hPa 0,0 l/m 1,4 km/h (1 Bft) O-NO 0,000 mm 0,0 UV-I 0 W/m -1,2 C 1,0 C 2,4 km/h (1 Bft)
30.12.2013 18:00 24,2 C -0,5 C 59 % 90 % 1027,1 hPa 0,0 l/m 1,3 km/h (1 Bft) O-SO 0,000 mm 0,0 UV-I 0 W/m -2,0 C -0,5 C 2,2 km/h (1 Bft)
30.12.2013 19:00 24,2 C -1,7 C 60 % 93 % 1027,1 hPa 0,0 l/m 0,1 km/h (0 Bft) O 0,000 mm 0,0 UV-I 0 W/m -2,7 C -1,7 C 0,8 km/h (0 Bft)
30.12.2013 20:00 24,3 C -2,4 C 61 % 95 % 1027,0 hPa 0,0 l/m 0,5 km/h (0 Bft) O 0,000 mm 0,0 UV-I 0 W/m -3,1 C -2,4 C 1,3 km/h (1 Bft)
30.12.2013 21:00 24,5 C -2,7 C 61 % 95 % 1027,0 hPa 0,0 l/m 1,8 km/h (1 Bft) N-NO 0,000 mm 0,0 UV-I 0 W/m -3,4 C -2,7 C 2,8 km/h (1 Bft)
30.12.2013 22:00 24,4 C -3,2 C 61 % 95 % 1026,9 hPa 0,0 l/m 0,4 km/h (0 Bft) N 0,000 mm 0,0 UV-I 0 W/m -3,8 C -3,2 C 0,6 km/h (0 Bft)
30.12.2013 23:00 24,3 C -3,8 C 61 % 95 % 1027,0 hPa 0,0 l/m 0,1 km/h (0 Bft) N 0,000 mm 0,0 UV-I 0 W/m -4,5 C -3,8 C 0,3 km/h (0 Bft)
31.12.2013 00:00 24,2 C -4,1 C 61 % 96 % 1026,6 hPa 0,0 l/m 0,3 km/h (0 Bft) N 0,000 mm 0,0 UV-I 0 W/m -4,6 C -4,1 C 0,6 km/h (0 Bft)
31.12.2013 01:00 23,9 C -4,2 C 61 % 96 % 1026,0 hPa 0,0 l/m 0,9 km/h (0 Bft) O-SO 0,000 mm 0,0 UV-I 0 W/m -4,7 C -4,2 C 2,0 km/h (1 Bft)
31.12.2013 02:00 23,8 C -4,4 C 61 % 96 % 1026,0 hPa 0,0 l/m 2,4 km/h (1 Bft) W-NW 0,000 mm 0,0 UV-I 0 W/m -4,9 C -4,4 C 4,0 km/h (1 Bft)
31.12.2013 03:00 23,6 C -4,4 C 61 % 97 % 1025,4 hPa 0,0 l/m 1,2 km/h (1 Bft) SO 0,000 mm 0,0 UV-I 0 W/m -4,9 C -4,4 C 2,0 km/h (1 Bft)
31.12.2013 04:00 23,5 C -4,4 C 61 % 96 % 1025,1 hPa 0,0 l/m 0,5 km/h (0 Bft) N-NO 0,000 mm 0,0 UV-I 0 W/m -4,9 C -4,4 C 1,1 km/h (1 Bft)
31.12.2013 05:00 23,4 C -4,8 C 61 % 96 % 1024,6 hPa 0,0 l/m 0,0 km/h (0 Bft) N 0,000 mm 0,0 UV-I 0 W/m -5,4 C -4,8 C 0,0 km/h (0 Bft)
31.12.2013 06:00 23,5 C -4,9 C 61 % 96 % 1024,3 hPa 0,0 l/m 0,4 km/h (0 Bft) N-NO 0,000 mm 0,0 UV-I 0 W/m -5,5 C -4,9 C 0,9 km/h (0 Bft)
31.12.2013 07:00 23,7 C -4,9 C 61 % 96 % 1024,4 hPa 0,0 l/m 0,8 km/h (0 Bft) N-NO 0,000 mm 0,0 UV-I 0 W/m -5,5 C -4,9 C 1,5 km/h (1 Bft)
31.12.2013 08:00 23,7 C -5,0 C 61 % 96 % 1024,6 hPa 0,0 l/m 0,1 km/h (0 Bft) N-NO 0,000 mm 0,0 UV-I 26 W/m -5,6 C -5,0 C 0,2 km/h (0 Bft)
31.12.2013 09:00 23,7 C -3,3 C 61 % 96 % 1024,4 hPa 0,0 l/m 0,3 km/h (0 Bft) N-NO 0,000 mm 0,0 UV-I 89 W/m -3,9 C -3,3 C 1,0 km/h (0 Bft)
31.12.2013 10:00 23,8 C -0,5 C 61 % 95 % 1023,9 hPa 0,0 l/m 1,6 km/h (1 Bft) O 0,025 mm 0,0 UV-I 108 W/m -1,3 C -0,5 C 3,5 km/h (1 Bft)
31.12.2013 11:00 23,9 C 0,7 C 60 % 90 % 1023,2 hPa 0,0 l/m 1,1 km/h (0 Bft) O-NO 0,025 mm 0,0 UV-I 153 W/m -0,7 C 0,7 C 2,6 km/h (1 Bft)
31.12.2013 12:00 23,9 C 1,8 C 60 % 86 % 1022,4 hPa 0,0 l/m 1,4 km/h (1 Bft) S-SO 0,051 mm 0,0 UV-I 96 W/m -0,3 C 1,8 C 3,3 km/h (1 Bft)
31.12.2013 13:00 23,9 C 2,6 C 59 % 84 % 1021,9 hPa 0,0 l/m 1,3 km/h (1 Bft) N-NO 0,025 mm 0,0 UV-I 160 W/m 0,1 C 2,6 C 2,9 km/h (1 Bft)
31.12.2013 14:00 24,1 C 2,6 C 57 % 84 % 1021,3 hPa 0,0 l/m 3,0 km/h (1 Bft) O-NO 0,051 mm 0,0 UV-I 125 W/m 0,1 C 2,6 C 5,3 km/h (1 Bft)
31.12.2013 15:00 24,1 C 1,6 C 54 % 85 % 1021,0 hPa 0,0 l/m 3,1 km/h (1 Bft) O-NO 0,051 mm 0,0 UV-I 41 W/m -0,5 C 1,6 C 5,7 km/h (1 Bft)
31.12.2013 16:00 23,8 C -0,5 C 53 % 90 % 1021,0 hPa 0,0 l/m 2,1 km/h (1 Bft) O-NO 0,025 mm 0,0 UV-I 7 W/m -1,9 C -0,5 C 3,9 km/h (1 Bft)
31.12.2013 17:00 23,8 C -1,6 C 54 % 93 % 1020,7 hPa 0,0 l/m 2,3 km/h (1 Bft) O 0,000 mm 0,0 UV-I 0 W/m -2,6 C -1,6 C 4,8 km/h (1 Bft)
31.12.2013 18:00 23,8 C -2,3 C 55 % 95 % 1020,3 hPa 0,0 l/m 2,4 km/h (1 Bft) O-NO 0,000 mm 0,0 UV-I 0 W/m -3,0 C -2,3 C 4,9 km/h (1 Bft)
31.12.2013 19:00 23,9 C -2,7 C 57 % 95 % 1019,8 hPa 0,0 l/m 2,6 km/h (1 Bft) O-NO 0,000 mm 0,0 UV-I 0 W/m -3,4 C -2,7 C 5,0 km/h (1 Bft)
31.12.2013 20:00 24,1 C -3,1 C 59 % 95 % 1019,7 hPa 0,0 l/m 3,2 km/h (1 Bft) O 0,000 mm 0,0 UV-I 0 W/m -3,9 C -3,1 C 6,1 km/h (2 Bft)
31.12.2013 21:00 24,1 C -3,5 C 60 % 94 % 1019,5 hPa 0,0 l/m 3,3 km/h (1 Bft) O 0,000 mm 0,0 UV-I 0 W/m -4,4 C -3,5 C 6,6 km/h (2 Bft)
31.12.2013 22:00 24,2 C -3,8 C 60 % 94 % 1019,2 hPa 0,0 l/m 2,6 km/h (1 Bft) O-NO 0,000 mm 0,0 UV-I 0 W/m -4,5 C -3,8 C 4,8 km/h (1 Bft)
31.12.2013 23:00 24,4 C -4,0 C 60 % 94 % 1018,7 hPa 0,0 l/m 1,6 km/h (1 Bft) O-NO 0,000 mm 0,0 UV-I 0 W/m -4,8 C -4,0 C 3,4 km/h (1 Bft)
01.01.2014 00:00 24,3 C -4,3 C 60 % 94 % 1018,2 hPa 0,0 l/m 0,8 km/h (0 Bft) O 0,000 mm 0,0 UV-I 0 W/m -5,1 C -4,3 C 1,8 km/h (1 Bft)
01.01.2014 01:00 24,1 C -4,5 C 60 % 95 % 1017,9 hPa 0,0 l/m 0,7 km/h (0 Bft) O-NO 0,000 mm 0,0 UV-I 0 W/m -5,2 C -4,5 C 2,1 km/h (1 Bft)
01.01.2014 02:00 23,8 C -5,0 C 60 % 94 % 1018,0 hPa 0,0 l/m 0,9 km/h (0 Bft) O 0,000 mm 0,0 UV-I 0 W/m -5,8 C -5,0 C 2,2 km/h (1 Bft)
01.01.2014 03:00 23,6 C -5,7 C 60 % 95 % 1017,8 hPa 0,0 l/m 0,6 km/h (0 Bft) O-SO 0,000 mm 0,0 UV-I 0 W/m -6,4 C -5,7 C 1,4 km/h (1 Bft)
01.01.2014 04:00 23,5 C -5,8 C 60 % 96 % 1017,7 hPa 0,0 l/m 1,4 km/h (1 Bft) W-NW 0,000 mm 0,0 UV-I 0 W/m -6,3 C -5,8 C 2,7 km/h (1 Bft)
01.01.2014 05:00 23,4 C -5,5 C 60 % 96 % 1017,9 hPa 0,0 l/m 0,9 km/h (0 Bft) NW 0,000 mm 0,0 UV-I 0 W/m -6,1 C -5,5 C 2,0 km/h (1 Bft)
01.01.2014 06:00 23,4 C -5,3 C 60 % 96 % 1018,3 hPa 0,0 l/m 1,0 km/h (0 Bft) NW 0,000 mm 0,0 UV-I 0 W/m -5,8 C -5,3 C 2,1 km/h (1 Bft)
01.01.2014 07:00 23,4 C -3,9 C 60 % 97 % 1018,3 hPa 0,0 l/m 3,6 km/h (1 Bft) S 0,000 mm 0,0 UV-I 0 W/m -4,3 C -4,1 C 6,1 km/h (2 Bft)
01.01.2014 08:00 23,4 C -2,8 C 60 % 97 % 1018,6 hPa 0,0 l/m 5,8 km/h (2 Bft) S 0,000 mm 0,0 UV-I 11 W/m -3,2 C -3,2 C 8,3 km/h (2 Bft)
01.01.2014 09:00 23,3 C -2,2 C 60 % 96 % 1019,0 hPa 0,0 l/m 5,7 km/h (1 Bft) S 0,000 mm 0,0 UV-I 19 W/m -2,6 C -2,7 C 8,6 km/h (2 Bft)
01.01.2014 10:00 23,3 C -1,6 C 60 % 96 % 1019,0 hPa 0,0 l/m 4,7 km/h (1 Bft) W-SW 0,000 mm 0,0 UV-I 56 W/m -2,1 C -1,8 C 7,3 km/h (2 Bft)
01.01.2014 11:00 23,6 C -0,9 C 61 % 95 % 1018,9 hPa 0,0 l/m 5,2 km/h (1 Bft) S 0,025 mm 0,0 UV-I 73 W/m -1,5 C -1,2 C 8,0 km/h (2 Bft)
01.01.2014 12:00 23,4 C -0,3 C 61 % 94 % 1018,3 hPa 0,0 l/m 4,9 km/h (1 Bft) S 0,025 mm 0,0 UV-I 62 W/m -1,2 C -0,5 C 7,5 km/h (2 Bft)
01.01.2014 13:00 23,4 C 0,0 C 61 % 93 % 1017,9 hPa 0,0 l/m 3,3 km/h (1 Bft) SW 0,025 mm 0,0 UV-I 48 W/m -0,9 C 0,0 C 5,3 km/h (1 Bft)
01.01.2014 14:00 23,8 C 0,3 C 61 % 93 % 1017,6 hPa 0,0 l/m 1,4 km/h (1 Bft) S 0,025 mm 0,0 UV-I 33 W/m -0,7 C 0,3 C 2,8 km/h (1 Bft)
01.01.2014 15:00 24,0 C 0,4 C 61 % 93 % 1017,5 hPa 0,0 l/m 1,4 km/h (1 Bft) W-NW 0,000 mm 0,0 UV-I 15 W/m -0,6 C 0,4 C 2,7 km/h (1 Bft)
01.01.2014 16:00 24,0 C 0,2 C 61 % 94 % 1017,1 hPa 0,0 l/m 2,0 km/h (1 Bft) W-NW 0,000 mm 0,0 UV-I 9 W/m -0,6 C 0,2 C 3,3 km/h (1 Bft)
01.01.2014 17:00 23,9 C -0,1 C 61 % 95 % 1016,8 hPa 0,0 l/m 0,1 km/h (0 Bft) W-NW 0,000 mm 0,0 UV-I 0 W/m -0,9 C -0,1 C 0,3 km/h (0 Bft)
01.01.2014 18:00 23,8 C -1,0 C 60 % 95 % 1016,5 hPa 0,0 l/m 0,2 km/h (0 Bft) O-NO 0,000 mm 0,0 UV-I 0 W/m -1,7 C -1,0 C 0,5 km/h (0 Bft)
01.01.2014 19:00 23,7 C -1,9 C 60 % 95 % 1016,0 hPa 0,0 l/m 0,1 km/h (0 Bft) O 0,000 mm 0,0 UV-I 0 W/m -2,6 C -1,9 C 0,4 km/h (0 Bft)
01.01.2014 20:00 23,8 C -2,5 C 61 % 96 % 1015,6 hPa 0,0 l/m 0,5 km/h (0 Bft) N-NO 0,000 mm 0,0 UV-I 0 W/m -3,1 C -2,5 C 1,0 km/h (0 Bft)
01.01.2014 21:00 24,0 C -2,7 C 62 % 97 % 1015,2 hPa 0,0 l/m 0,2 km/h (0 Bft) N-NO 0,000 mm 0,0 UV-I 0 W/m -3,1 C -2,7 C 0,9 km/h (0 Bft)
01.01.2014 22:00 23,9 C -2,8 C 61 % 97 % 1014,6 hPa 0,0 l/m 0,4 km/h (0 Bft) N-NO 0,000 mm 0,0 UV-I 0 W/m -3,2 C -2,8 C 1,2 km/h (1 Bft)
01.01.2014 23:00 24,0 C -3,3 C 61 % 97 % 1013,6 hPa 0,0 l/m 0,2 km/h (0 Bft) S-SO 0,000 mm 0,0 UV-I 0 W/m -3,7 C -3,3 C 0,6 km/h (0 Bft)
02.01.2014 00:00 23,7 C -2,7 C 61 % 98 % 1012,3 hPa 0,0 l/m 1,3 km/h (1 Bft) O 0,000 mm 0,0 UV-I 0 W/m -3,1 C -2,7 C 3,1 km/h (1 Bft)
02.01.2014 01:00 23,5 C -2,5 C 61 % 97 % 1011,9 hPa 0,0 l/m 2,9 km/h (1 Bft) NW 0,000 mm 0,0 UV-I 0 W/m -2,8 C -2,5 C 4,9 km/h (1 Bft)
02.01.2014 02:00 23,4 C -1,3 C 61 % 98 % 1011,3 hPa 0,0 l/m 4,3 km/h (1 Bft) O 0,000 mm 0,0 UV-I 0 W/m -1,7 C -1,5 C 7,5 km/h (2 Bft)
02.01.2014 03:00 23,3 C -1,0 C 61 % 96 % 1010,9 hPa 0,0 l/m 3,9 km/h (1 Bft) O 0,000 mm 0,0 UV-I 0 W/m -1,5 C -1,5 C 7,1 km/h (2 Bft)
02.01.2014 04:00 23,2 C -0,6 C 61 % 95 % 1010,3 hPa 0,0 l/m 6,4 km/h (2 Bft) O-NO 0,000 mm 0,0 UV-I 0 W/m -1,3 C -1,2 C 11,2 km/h (2 Bft)
02.01.2014 05:00 23,1 C -0,5 C 61 % 94 % 1010,1 hPa 0,0 l/m 3,0 km/h (1 Bft) O 0,000 mm 0,0 UV-I 0 W/m -1,3 C -0,6 C 6,3 km/h (2 Bft)
02.01.2014 06:00 23,2 C -0,6 C 61 % 94 % 1009,7 hPa 0,0 l/m 6,0 km/h (2 Bft) O 0,000 mm 0,0 UV-I 0 W/m -1,4 C -1,2 C 11,1 km/h (2 Bft)
02.01.2014 07:00 23,2 C -0,9 C 61 % 94 % 1009,8 hPa 0,0 l/m 5,1 km/h (1 Bft) O 0,000 mm 0,0 UV-I 0 W/m -1,7 C -1,2 C 9,7 km/h (2 Bft)
02.01.2014 08:00 23,2 C -1,2 C 61 % 95 % 1010,1 hPa 0,0 l/m 1,9 km/h (1 Bft) O-SO 0,000 mm 0,0 UV-I 12 W/m -1,8 C -1,2 C 4,3 km/h (1 Bft)
02.01.2014 09:00 23,2 C -0,7 C 61 % 95 % 1010,5 hPa 0,0 l/m 1,7 km/h (1 Bft) O-SO 0,000 mm 0,0 UV-I 36 W/m -1,4 C -0,7 C 3,7 km/h (1 Bft)
02.01.2014 10:00 23,2 C -0,1 C 61 % 94 % 1010,7 hPa 0,0 l/m 2,0 km/h (1 Bft) O-SO 0,000 mm 0,0 UV-I 79 W/m -0,9 C -0,1 C 4,1 km/h (1 Bft)
02.01.2014 11:00 23,6 C 1,0 C 61 % 91 % 1010,7 hPa 0,0 l/m 1,2 km/h (1 Bft) N-NO 0,025 mm 0,0 UV-I 103 W/m -0,4 C 1,0 C 2,6 km/h (1 Bft)
02.01.2014 12:00 23,6 C 1,9 C 60 % 87 % 1010,2 hPa 0,0 l/m 0,2 km/h (0 Bft) SO 0,025 mm 0,0 UV-I 134 W/m 0,0 C 1,9 C 1,3 km/h (1 Bft)
02.01.2014 13:00 23,6 C 2,9 C 60 % 82 % 1009,5 hPa 0,0 l/m 0,9 km/h (0 Bft) SO 0,051 mm 0,0 UV-I 105 W/m 0,1 C 2,9 C 2,1 km/h (1 Bft)
02.01.2014 14:00 23,7 C 3,0 C 60 % 83 % 1009,5 hPa 0,0 l/m 1,1 km/h (0 Bft) W-SW 0,051 mm 0,0 UV-I 47 W/m 0,3 C 3,0 C 2,3 km/h (1 Bft)
02.01.2014 15:00 23,8 C 2,7 C 60 % 86 % 1010,3 hPa 0,0 l/m 1,7 km/h (1 Bft) W-SW 0,025 mm 0,0 UV-I 15 W/m 0,7 C 2,7 C 3,7 km/h (1 Bft)
02.01.2014 16:00 23,8 C 2,2 C 60 % 91 % 1010,3 hPa 0,0 l/m 2,4 km/h (1 Bft) S-SO 0,000 mm 0,0 UV-I 5 W/m 0,9 C 2,2 C 3,9 km/h (1 Bft)
02.01.2014 17:00 23,7 C 2,4 C 60 % 91 % 1010,7 hPa 0,0 l/m 4,2 km/h (1 Bft) S 0,000 mm 0,0 UV-I 0 W/m 1,0 C 2,2 C 6,6 km/h (2 Bft)
02.01.2014 18:00 23,8 C 2,6 C 61 % 89 % 1011,2 hPa 0,0 l/m 4,8 km/h (1 Bft) S 0,000 mm 0,0 UV-I 0 W/m 1,0 C 2,4 C 7,5 km/h (2 Bft)
02.01.2014 19:00 23,8 C 2,6 C 60 % 90 % 1011,6 hPa 0,0 l/m 4,3 km/h (1 Bft) W-SW 0,000 mm 0,0 UV-I 0 W/m 1,2 C 2,3 C 7,0 km/h (2 Bft)
02.01.2014 20:00 24,2 C 2,3 C 60 % 91 % 1012,2 hPa 0,0 l/m 2,7 km/h (1 Bft) W-NW 0,000 mm 0,0 UV-I 0 W/m 1,0 C 2,3 C 4,4 km/h (1 Bft)
02.01.2014 21:00 24,4 C 2,0 C 60 % 94 % 1012,6 hPa 0,0 l/m 3,3 km/h (1 Bft) W-NW 0,000 mm 0,0 UV-I 0 W/m 1,1 C 2,0 C 5,1 km/h (1 Bft)
02.01.2014 22:00 24,3 C 2,7 C 60 % 93 % 1013,1 hPa 0,0 l/m 1,8 km/h (1 Bft) W 0,000 mm 0,0 UV-I 0 W/m 1,7 C 2,7 C 3,6 km/h (1 Bft)
02.01.2014 23:00 24,2 C 3,2 C 61 % 94 % 1013,5 hPa 0,0 l/m 3,4 km/h (1 Bft) W-SW 0,000 mm 0,0 UV-I 0 W/m 2,3 C 3,2 C 5,8 km/h (2 Bft)
03.01.2014 00:00 23,9 C 3,5 C 61 % 93 % 1013,9 hPa 0,0 l/m 2,5 km/h (1 Bft) W-SW 0,000 mm 0,0 UV-I 0 W/m 2,5 C 3,5 C 4,5 km/h (1 Bft)
03.01.2014 01:00 23,7 C 3,2 C 62 % 94 % 1014,1 hPa 0,0 l/m 1,8 km/h (1 Bft) W-SW 0,000 mm 0,0 UV-I 0 W/m 2,3 C 3,2 C 3,4 km/h (1 Bft)
03.01.2014 02:00 23,5 C 3,0 C 62 % 94 % 1014,1 hPa 0,0 l/m 1,3 km/h (1 Bft) W-SW 0,000 mm 0,0 UV-I 0 W/m 2,1 C 3,0 C 2,3 km/h (1 Bft)
03.01.2014 03:00 23,4 C 2,4 C 62 % 94 % 1014,4 hPa 0,0 l/m 1,8 km/h (1 Bft) W-NW 0,000 mm 0,0 UV-I 0 W/m 1,5 C 2,4 C 3,2 km/h (1 Bft)
03.01.2014 04:00 23,3 C 1,4 C 62 % 95 % 1014,3 hPa 0,0 l/m 0,5 km/h (0 Bft) W-NW 0,000 mm 0,0 UV-I 0 W/m 0,6 C 1,4 C 1,2 km/h (1 Bft)
03.01.2014 05:00 23,2 C 0,0 C 62 % 95 % 1014,1 hPa 0,0 l/m 0,0 km/h (0 Bft) N 0,000 mm 0,0 UV-I 0 W/m -0,7 C 0,0 C 0,0 km/h (0 Bft)
03.01.2014 06:00 23,3 C -0,8 C 63 % 96 % 1014,2 hPa 0,0 l/m 0,2 km/h (0 Bft) W-NW 0,000 mm 0,0 UV-I 0 W/m -1,4 C -0,8 C 0,5 km/h (0 Bft)
03.01.2014 07:00 23,6 C -1,3 C 63 % 97 % 1014,0 hPa 0,0 l/m 0,3 km/h (0 Bft) W-NW 0,000 mm 0,0 UV-I 0 W/m -1,7 C -1,3 C 0,8 km/h (0 Bft)
03.01.2014 08:00 23,8 C -1,5 C 63 % 97 % 1014,4 hPa 0,0 l/m 1,7 km/h (1 Bft) W-NW 0,000 mm 0,0 UV-I 19 W/m -1,8 C -1,5 C 3,1 km/h (1 Bft)
03.01.2014 09:00 23,9 C -0,7 C 63 % 98 % 1014,6 hPa 0,0 l/m 0,0 km/h (0 Bft) N 0,000 mm 0,0 UV-I 52 W/m -0,9 C -0,7 C 0,2 km/h (0 Bft)
03.01.2014 10:00 24,0 C 0,0 C 63 % 99 % 1014,5 hPa 0,0 l/m 0,2 km/h (0 Bft) W-NW 0,025 mm 0,0 UV-I 97 W/m -0,1 C 0,0 C 0,5 km/h (0 Bft)
03.01.2014 11:00 23,8 C 1,9 C 62 % 98 % 1014,0 hPa 0,0 l/m 3,5 km/h (1 Bft) S 0,025 mm 0,0 UV-I 85 W/m 1,6 C 1,6 C 5,8 km/h (2 Bft)
03.01.2014 12:00 23,8 C 4,5 C 61 % 87 % 1013,3 hPa 0,2 l/m 6,7 km/h (2 Bft) S 0,025 mm 0,0 UV-I 95 W/m 2,6 C 3,6 C 10,8 km/h (2 Bft)
03.01.2014 13:00 24,1 C 5,2 C 61 % 83 % 1013,1 hPa 0,0 l/m 4,7 km/h (1 Bft) W-SW 0,051 mm 0,0 UV-I 112 W/m 2,7 C 4,6 C 7,6 km/h (2 Bft)
03.01.2014 14:00 24,3 C 5,9 C 61 % 80 % 1013,0 hPa 0,0 l/m 4,8 km/h (1 Bft) W-SW 0,051 mm 0,0 UV-I 98 W/m 2,8 C 5,8 C 7,6 km/h (2 Bft)
03.01.2014 15:00 24,2 C 5,3 C 60 % 83 % 1013,2 hPa 0,0 l/m 4,3 km/h (1 Bft) W-SW 0,051 mm 0,0 UV-I 19 W/m 2,6 C 5,2 C 6,9 km/h (2 Bft)
03.01.2014 16:00 24,3 C 4,7 C 59 % 83 % 1013,7 hPa 0,0 l/m 4,9 km/h (1 Bft) W-SW 0,025 mm 0,0 UV-I 0 W/m 2,1 C 4,2 C 7,7 km/h (2 Bft)
03.01.2014 17:00 24,3 C 4,1 C 58 % 86 % 1013,4 hPa 0,0 l/m 4,2 km/h (1 Bft) S-SO 0,000 mm 0,0 UV-I 0 W/m 2,0 C 3,8 C 6,8 km/h (2 Bft)
03.01.2014 18:00 24,2 C 3,7 C 58 % 90 % 1013,6 hPa 0,0 l/m 5,3 km/h (1 Bft) W-SW 0,000 mm 0,0 UV-I 0 W/m 2,2 C 3,4 C 8,7 km/h (2 Bft)
03.01.2014 19:00 24,2 C 3,9 C 57 % 93 % 1013,8 hPa 0,0 l/m 3,9 km/h (1 Bft) W-SW 0,000 mm 0,0 UV-I 0 W/m 2,8 C 3,8 C 6,7 km/h (2 Bft)
03.01.2014 20:00 24,3 C 4,1 C 57 % 94 % 1013,9 hPa 0,0 l/m 4,6 km/h (1 Bft) W-SW 0,000 mm 0,0 UV-I 0 W/m 3,2 C 3,7 C 7,6 km/h (2 Bft)
03.01.2014 21:00 24,5 C 4,1 C 57 % 94 % 1014,2 hPa 0,0 l/m 5,5 km/h (1 Bft) W-SW 0,000 mm 0,0 UV-I 0 W/m 3,3 C 3,5 C 8,6 km/h (2 Bft)
03.01.2014 22:00 24,5 C 4,5 C 57 % 95 % 1014,7 hPa 0,0 l/m 5,9 km/h (2 Bft) W-SW 0,000 mm 0,0 UV-I 0 W/m 3,7 C 4,2 C 9,3 km/h (2 Bft)
03.01.2014 23:00 24,2 C 5,1 C 57 % 93 % 1014,8 hPa 0,0 l/m 5,8 km/h (2 Bft) S 0,000 mm 0,0 UV-I 0 W/m 4,0 C 4,5 C 9,2 km/h (2 Bft)
04.01.2014 00:00 23,9 C 5,1 C 58 % 92 % 1014,7 hPa 0,0 l/m 9,4 km/h (2 Bft) S-SO 0,000 mm 0,0 UV-I 0 W/m 3,9 C 2,5 C 14,5 km/h (3 Bft)
04.01.2014 01:00 23,7 C 5,2 C 58 % 92 % 1015,2 hPa 0,0 l/m 8,0 km/h (2 Bft) S 0,000 mm 0,0 UV-I 0 W/m 4,0 C 3,5 C 13,1 km/h (3 Bft)
04.01.2014 02:00 23,6 C 5,2 C 58 % 92 % 1016,2 hPa 0,0 l/m 4,2 km/h (1 Bft) S 0,000 mm 0,0 UV-I 0 W/m 4,0 C 4,8 C 7,4 km/h (2 Bft)
04.01.2014 03:00 23,4 C 5,2 C 58 % 92 % 1016,5 hPa 0,0 l/m 9,6 km/h (2 Bft) S-SW 0,000 mm 0,0 UV-I 0 W/m 4,1 C 2,7 C 14,7 km/h (3 Bft)
04.01.2014 04:00 23,3 C 5,3 C 59 % 92 % 1016,7 hPa 0,0 l/m 6,3 km/h (2 Bft) SW 0,000 mm 0,0 UV-I 0 W/m 4,1 C 4,7 C 9,8 km/h (2 Bft)
04.01.2014 05:00 23,3 C 5,2 C 59 % 92 % 1016,3 hPa 0,0 l/m 3,4 km/h (1 Bft) SW 0,000 mm 0,0 UV-I 0 W/m 4,0 C 5,2 C 5,4 km/h (1 Bft)
04.01.2014 06:00 23,2 C 4,4 C 59 % 93 % 1015,9 hPa 0,0 l/m 2,3 km/h (1 Bft) SO 0,000 mm 0,0 UV-I 0 W/m 3,3 C 4,4 C 3,7 km/h (1 Bft)
04.01.2014 07:00 23,3 C 3,8 C 59 % 94 % 1015,6 hPa 0,0 l/m 3,3 km/h (1 Bft) O-SO 0,000 mm 0,0 UV-I 0 W/m 2,9 C 3,8 C 5,0 km/h (1 Bft)
04.01.2014 08:00 23,6 C 2,6 C 59 % 91 % 1015,3 hPa 0,0 l/m 1,5 km/h (1 Bft) O 0,000 mm 0,0 UV-I 14 W/m 1,3 C 2,6 C 2,7 km/h (1 Bft)
04.01.2014 09:00 23,8 C 1,1 C 59 % 95 % 1015,0 hPa 0,0 l/m 2,6 km/h (1 Bft) O-NO 0,000 mm 0,0 UV-I 46 W/m 0,4 C 1,1 C 4,3 km/h (1 Bft)
04.01.2014 10:00 23,8 C 2,4 C 59 % 97 % 1014,0 hPa 0,0 l/m 0,8 km/h (0 Bft) O-NO 0,025 mm 0,0 UV-I 55 W/m 2,0 C 2,4 C 1,9 km/h (1 Bft)
04.01.2014 11:00 24,0 C 3,7 C 59 % 93 % 1012,1 hPa 0,0 l/m 3,1 km/h (1 Bft) O-SO 0,025 mm 0,0 UV-I 71 W/m 2,7 C 3,7 C 5,6 km/h (1 Bft)
04.01.2014 12:00 24,0 C 6,3 C 59 % 81 % 1010,1 hPa 0,0 l/m 6,9 km/h (2 Bft) O-SO 0,025 mm 0,0 UV-I 94 W/m 3,2 C 5,1 C 12,7 km/h (3 Bft)
04.01.2014 13:00 23,8 C 7,2 C 56 % 70 % 1007,8 hPa 0,0 l/m 6,5 km/h (2 Bft) O 0,051 mm 0,0 UV-I 109 W/m 2,2 C 6,4 C 12,3 km/h (3 Bft)
04.01.2014 14:00 23,9 C 6,8 C 56 % 75 % 1006,0 hPa 0,0 l/m 3,4 km/h (1 Bft) O 0,076 mm 0,0 UV-I 52 W/m 2,7 C 6,6 C 7,0 km/h (2 Bft)
04.01.2014 15:00 23,8 C 6,5 C 56 % 80 % 1005,3 hPa 0,0 l/m 5,7 km/h (1 Bft) O 0,025 mm 0,0 UV-I 15 W/m 3,2 C 6,1 C 10,1 km/h (2 Bft)
04.01.2014 16:00 24,0 C 6,1 C 57 % 83 % 1003,9 hPa 0,0 l/m 4,8 km/h (1 Bft) O 0,025 mm 0,0 UV-I 0 W/m 3,5 C 6,0 C 8,9 km/h (2 Bft)
04.01.2014 17:00 23,9 C 6,1 C 57 % 84 % 1002,8 hPa 0,0 l/m 4,2 km/h (1 Bft) O 0,000 mm 0,0 UV-I 0 W/m 3,7 C 6,0 C 8,0 km/h (2 Bft)
04.01.2014 18:00 23,9 C 5,8 C 57 % 85 % 1001,9 hPa 0,0 l/m 0,1 km/h (0 Bft) S-SO 0,025 mm 0,0 UV-I 0 W/m 3,5 C 5,8 C 0,6 km/h (0 Bft)
04.01.2014 19:00 23,9 C 5,2 C 57 % 88 % 1002,1 hPa 0,2 l/m 0,5 km/h (0 Bft) W-NW 0,000 mm 0,0 UV-I 0 W/m 3,4 C 5,2 C 1,3 km/h (1 Bft)
04.01.2014 20:00 24,3 C 4,8 C 58 % 92 % 1002,4 hPa 0,4 l/m 1,9 km/h (1 Bft) SO 0,000 mm 0,0 UV-I 0 W/m 3,7 C 4,8 C 3,5 km/h (1 Bft)
04.01.2014 21:00 24,5 C 4,5 C 59 % 95 % 1002,3 hPa 1,2 l/m 2,2 km/h (1 Bft) S-SO 0,000 mm 0,0 UV-I 0 W/m 3,8 C 4,5 C 3,5 km/h (1 Bft)
04.01.2014 22:00 24,5 C 4,5 C 59 % 97 % 1002,1 hPa 0,2 l/m 1,6 km/h (1 Bft) S-SO 0,000 mm 0,0 UV-I 0 W/m 4,0 C 4,5 C 2,9 km/h (1 Bft)
04.01.2014 23:00 24,1 C 4,6 C 59 % 97 % 1001,9 hPa 0,2 l/m 1,2 km/h (1 Bft) SO 0,000 mm 0,0 UV-I 0 W/m 4,2 C 4,6 C 2,5 km/h (1 Bft)
05.01.2014 00:00 23,9 C 4,6 C 60 % 98 % 1001,5 hPa 0,0 l/m 1,5 km/h (1 Bft) N-NO 0,000 mm 0,0 UV-I 0 W/m 4,3 C 4,6 C 2,6 km/h (1 Bft)
05.01.2014 01:00 23,7 C 3,5 C 60 % 96 % 1001,1 hPa 0,0 l/m 0,3 km/h (0 Bft) N-NO 0,000 mm 0,0 UV-I 0 W/m 3,0 C 3,5 C 0,7 km/h (0 Bft)
05.01.2014 02:00 23,6 C 2,8 C 60 % 97 % 1001,7 hPa 0,0 l/m 0,7 km/h (0 Bft) W-NW 0,000 mm 0,0 UV-I 0 W/m 2,5 C 2,8 C 1,9 km/h (1 Bft)
05.01.2014 03:00 23,6 C 3,6 C 60 % 99 % 1001,7 hPa 0,0 l/m 0,6 km/h (0 Bft) O-SO 0,000 mm 0,0 UV-I 0 W/m 3,5 C 3,6 C 1,9 km/h (1 Bft)
05.01.2014 04:00 23,4 C 3,6 C 61 % 99 % 1001,9 hPa 0,0 l/m 3,3 km/h (1 Bft) S 0,000 mm 0,0 UV-I 0 W/m 3,5 C 3,6 C 5,3 km/h (1 Bft)
05.01.2014 05:00 23,4 C 4,0 C 61 % 99 % 1001,9 hPa 0,0 l/m 3,8 km/h (1 Bft) S 0,000 mm 0,0 UV-I 0 W/m 3,9 C 4,0 C 5,8 km/h (2 Bft)
05.01.2014 06:00 23,3 C 4,1 C 61 % 99 % 1003,1 hPa 0,0 l/m 5,1 km/h (1 Bft) S 0,000 mm 0,0 UV-I 0 W/m 3,9 C 3,7 C 8,2 km/h (2 Bft)
05.01.2014 07:00 23,3 C 4,2 C 61 % 99 % 1004,5 hPa 0,0 l/m 7,1 km/h (2 Bft) S-SW 0,000 mm 0,0 UV-I 0 W/m 4,1 C 3,0 C 11,5 km/h (2 Bft)
05.01.2014 08:00 23,3 C 4,2 C 61 % 99 % 1005,3 hPa 0,0 l/m 4,4 km/h (1 Bft) SW 0,000 mm 0,0 UV-I 0 W/m 4,1 C 4,0 C 7,6 km/h (2 Bft)
05.01.2014 09:00 23,3 C 4,3 C 61 % 99 % 1006,3 hPa 0,0 l/m 6,7 km/h (2 Bft) SW 0,000 mm 0,0 UV-I 11 W/m 4,2 C 3,6 C 10,3 km/h (2 Bft)
05.01.2014 10:00 23,3 C 4,5 C 61 % 98 % 1007,3 hPa 0,0 l/m 8,1 km/h (2 Bft) W-SW 0,000 mm 0,0 UV-I 18 W/m 4,2 C 2,9 C 12,5 km/h (3 Bft)
05.01.2014 11:00 23,3 C 4,8 C 61 % 95 % 1007,8 hPa 0,0 l/m 8,4 km/h (2 Bft) W-SW 0,000 mm 0,0 UV-I 28 W/m 4,1 C 3,0 C 12,2 km/h (2 Bft)
05.01.2014 12:00 23,5 C 4,7 C 62 % 97 % 1008,3 hPa 0,0 l/m 6,6 km/h (2 Bft) W-SW 0,025 mm 0,0 UV-I 28 W/m 4,3 C 4,1 C 10,3 km/h (2 Bft)
05.01.2014 13:00 23,6 C 5,1 C 62 % 96 % 1008,9 hPa 0,0 l/m 7,1 km/h (2 Bft) W-SW 0,025 mm 0,0 UV-I 72 W/m 4,5 C 3,9 C 10,7 km/h (2 Bft)
05.01.2014 14:00 23,8 C 5,1 C 62 % 95 % 1009,8 hPa 0,0 l/m 7,4 km/h (2 Bft) W-SW 0,025 mm 0,0 UV-I 36 W/m 4,4 C 4,0 C 11,5 km/h (2 Bft)
05.01.2014 15:00 23,9 C 4,9 C 62 % 96 % 1011,2 hPa 0,0 l/m 7,2 km/h (2 Bft) W-SW 0,025 mm 0,0 UV-I 10 W/m 4,3 C 4,0 C 11,1 km/h (2 Bft)
05.01.2014 16:00 24,0 C 4,5 C 63 % 96 % 1012,5 hPa 0,0 l/m 8,5 km/h (2 Bft) W-SW 0,000 mm 0,0 UV-I 0 W/m 3,9 C 2,7 C 13,2 km/h (3 Bft)
05.01.2014 17:00 23,8 C 4,2 C 63 % 95 % 1013,6 hPa 0,0 l/m 5,6 km/h (1 Bft) W-SW 0,000 mm 0,0 UV-I 0 W/m 3,5 C 3,6 C 8,8 km/h (2 Bft)
05.01.2014 18:00 23,7 C 3,8 C 63 % 94 % 1014,4 hPa 0,0 l/m 4,3 km/h (1 Bft) W-SW 0,000 mm 0,0 UV-I 0 W/m 3,0 C 3,7 C 7,1 km/h (2 Bft)
05.01.2014 19:00 23,9 C 3,4 C 62 % 95 % 1015,2 hPa 0,0 l/m 3,5 km/h (1 Bft) SW 0,000 mm 0,0 UV-I 0 W/m 2,7 C 3,4 C 5,9 km/h (2 Bft)
05.01.2014 20:00 24,3 C 3,1 C 63 % 96 % 1015,5 hPa 0,0 l/m 3,2 km/h (1 Bft) S 0,000 mm 0,0 UV-I 0 W/m 2,6 C 3,1 C 5,0 km/h (1 Bft)
05.01.2014 21:00 24,4 C 3,0 C 63 % 97 % 1015,3 hPa 0,0 l/m 5,7 km/h (1 Bft) S 0,000 mm 0,0 UV-I 0 W/m 2,5 C 2,6 C 8,4 km/h (2 Bft)
05.01.2014 22:00 24,5 C 2,4 C 63 % 97 % 1015,6 hPa 0,0 l/m 4,1 km/h (1 Bft) S 0,000 mm 0,0 UV-I 0 W/m 1,9 C 2,1 C 6,7 km/h (2 Bft)
05.01.2014 23:00 24,5 C 1,7 C 62 % 97 % 1016,0 hPa 0,0 l/m 4,6 km/h (1 Bft) S 0,000 mm 0,0 UV-I 0 W/m 1,3 C 1,4 C 7,1 km/h (2 Bft)
Min-Datum _ 02.01.14 01.01.14 31.12.13 04.01.14 05.01.14 - 30.12.13 - - - - 01.01.14 01.01.14 30.12.13
_ Min-Zeit 04:52 03:33 16:27 13:23 01:28 - 17:32 - - - - 03:37 07:37 17:38
Minimum _ 23,1 C -5,9 C 51 % 68 % 1000,8 hPa - 0,0 km/h (0 Bft) - - - - -6,7 C -7,1 C 0,0 km/h (0 Bft)
Max-Datum _ 03.01.14 04.01.14 03.01.14 03.01.14 30.12.13 04.01.14 04.01.14 - 04.01.14 30.12.13 03.01.14 05.01.14 04.01.14 04.01.14
_ Max-Zeit 22:09 13:22 06:06 10:15 17:06 21:14 00:25 - 14:00 17:06 14:00 13:15 13:25 00:36
Maximum _ 24,7 C 7,3 C 63 % 99 % 1027,2 hPa 1,2 l/m 19,3 km/h
S-SO (3 Bft)
- 0,076 mm 0,0 UV-I 272 W/m 4,6 C 7,3 C 27,4 km/h
S (4 Bft)
Durchschnitt _ 23,8 C 1,1 C 60 % 93 % 1014,4 hPa #2,4 l/m 3,0 km/h (1 Bft) W-SW #1,160 mm 0,0 UV-I 58 W/m 0,1 C 0,9 C 5,1 km/h (1 Bft)